Theta_e
315 317 320 321 322 327 328 330 331 332 333 337 339 339 338 337 338 330 328 326 325 324
314 313 315 318 320 321 322 328 332 331 331 332 335 332 331 331 331 331 329 329 328 327
310 313 314 314 315 318 320 321 323 330 332 334 336 334 331 329 329 329 329 329 328 329
308 311 313 314 315 317 319 321 323 327 328 332 333 335 334 334 333 331 331 333 331 330
309 310 309 311 314 317 319 320 322 323 326 330 332 333 335 335 337 334 333 334 336 336
308 309 310 312 314 316 317 318 319 323 325 327 328 330 333 337 338 336 337 337 339 343
304 307 310 312 312 314 317 317 317 319 321 323 325 327 330 335 338 342 342 344 345 344
306 309 311 314 315 318 319 320 320 320 320 320 322 324 325 331 337 338 342 344 345 344
308 309 309 310 311 313 315 318 320 320 320 320 324 315 312 318 330 338 341 340 340 342
308 308 307 309 311 310 311 313 316 317 318 318 319 310 308 311 323 330 339 339 337 335
307 307 307 307 308 309 309 310 311 314 316 318 320 309 306 309 321 326 336 337 336 333
307 306 306 305 306 308 308 309 311 314 316 317 321 310 307 310 322 327 334 336 333 330
306 306 305 305 305 307 308 309 312 314 316 315 320 311 306 309 322 327 330 331 329 314
306 305 305 305 307 307 306 310 312 313 314 318 319 321 306 301 320 330 329 329 329 327
Wind_Speed
6 4 4 4 3 4 3 4 6 7 8 5 3 6 10 7 8 6 8 7 6 5
7 7 7 8 5 5 6 5 6 7 8 7 9 7 7 7 10 11 12 11 11 7
7 7 7 5 7 7 6 6 7 6 8 7 9 10 11 10 11 12 8 10 12 8
7 8 7 6 7 7 7 7 7 8 7 8 9 10 10 11 10 9 10 13 10 11
6 7 7 7 9 8 8 7 7 7 6 6 7 6 8 9 10 12 15 15 10 12
5 6 6 7 8 8 8 8 7 6 6 7 7 7 7 10 13 13 16 12 11 13
7 6 5 6 7 7 8 8 7 6 6 7 7 8 10 12 14 13 15 12 13 14
4 4 4 4 5 7 7 9 8 7 7 7 7 8 11 11 11 14 12 13 15 12
4 3 4 4 4 4 6 8 10 8 7 7 7 12 15 12 11 12 12 14 10 9
6 6 6 6 6 6 6 7 11 12 8 8 8 12 15 17 10 11 13 13 10 6
8 9 8 7 9 9 7 8 9 10 10 10 9 12 15 17 12 10 14 11 9 10
12 12 10 11 10 10 11 11 10 8 9 9 10 12 15 15 7 10 12 9 9 11
12 13 13 11 12 13 12 13 10 9 8 9 10 12 16 12 7 8 5 6 7 13
14 13 13 13 11 10 8 11 9 7 7 7 8 9 13 13 7 7 6 7 6 6
Wind_Direction
202 210 228 237 250 238 247 234 239 234 243 260 222 187 197 189 222 234 245 246 233 223
204 202 208 215 208 218 228 237 242 240 241 245 245 197 185 209 220 229 235 236 245 213
210 216 225 230 232 225 233 230 231 216 228 226 221 223 210 223 230 233 249 253 241 221
216 217 223 221 232 231 233 231 227 221 215 217 217 211 209 219 232 236 244 252 242 248
233 238 232 243 242 226 231 240 239 239 229 232 245 236 232 236 236 236 245 243 240 251
215 242 247 240 235 241 235 234 232 227 228 228 238 247 252 258 257 242 250 244 240 243
197 226 250 273 263 242 242 249 248 246 236 239 249 259 266 258 257 243 243 243 238 232
201 227 223 237 276 289 278 264 243 234 235 235 242 253 254 252 250 256 251 242 238 231
237 256 284 294 284 280 274 276 269 257 238 240 248 258 253 249 257 254 243 252 240 226
227 232 242 252 260 269 268 270 268 263 245 249 240 250 256 259 255 252 242 234 226 205
215 225 225 231 242 251 256 259 261 258 258 258 261 247 254 258 261 250 246 227 209 196
224 220 220 229 233 237 247 254 253 247 251 254 263 250 256 259 248 250 245 217 170 177
217 223 224 229 247 246 233 240 240 243 230 246 259 258 256 251 235 248 212 192 172 166
226 222 225 232 233 231 223 234 231 238 246 244 241 262 259 234 228 230 199 173 155 170